#timestamp,LO_Frequency,Hit,StdDev 
1635814815.1,286046998.8,N
1635814835.9,286046999.7,N
1635814855.7,286047001.1,N
1635814875.5,286047001.0,N
1635814895.4,286047000.9,N
1635814915.2,286047002.8,N
1635814935.0,286047002.8,N
1635814936.0,286047002.8,N
1635814955.8,286047000.6,N
1635814975.6,286047000.4,N
1635814995.5,286047000.2,N
1635815015.3,286046999.8,N
1635815035.1,286046999.7,N
1635815055.9,286047002.7,N
1635815075.7,286047000.0,N
1635815125.6,286046999.7,E
1635815135.5,286047002.0,N
1635815155.4,286047002.8,P
1635815175.2,286047002.4,P
1635815195.0,286047002.0,Y
1635815195.9,286047002.0,P
1635815215.8,286046999.0,P
1635815235.6,286046999.4,N
1635815255.4,286046999.3,N
1635815275.3,286046998.4,N
1635815295.1,286046998.6,N
1635815315.9,286046998.1,N
1635815335.7,286047000.7,N
1635815355.5,286047001.2,N
1635815375.6,286046998.3,N
1635815395.5,286046998.9,N
1635815415.3,286046998.6,N
1635815435.2,286046998.7,N
1635815455.9,286046998.4,N
1635815475.7,286046999.3,N
1635815495.6,286046999.1,N
1635815515.4,286046999.6,N
1635815535.2,286046999.4,N
1635815555.1,286046998.9,N
1635815556.0,286046998.9,N
1635815575.8,286047000.8,N
1635815595.7,286047001.2,N
1635815615.5,286047001.0,N
1635815635.3,286047001.1,N
1635815655.2,286047001.1,N
1635815675.0,286047001.0,N
1635815675.9,286047001.0,N
1635815695.7,286046998.3,N
1635815715.6,286047000.7,N
1635815735.4,286047000.5,N
1635815755.3,286047001.0,N
1635815775.1,286047000.1,N
1635815776.0,286047000.1,N
1635815795.8,286047000.6,N
1635815815.7,286047001.1,N
1635815835.5,286047002.7,N
1635815855.3,286047002.1,N
1635815875.2,286047002.5,N
1635815895.0,286047000.0,N
1635815895.9,286047000.0,N
1635815915.8,286047001.1,N
1635815935.6,286047000.8,N
1635815955.4,286047000.6,N
1635815975.3,286047000.4,N
1635815995.1,286047000.7,N
1635816015.8,286046999.4,N
1635816035.7,286046999.0,N
1635816055.5,286046999.5,N
1635816075.4,286046999.5,N
1635816095.2,286046999.1,N
1635816115.0,286046998.7,N
1635816115.9,286046998.7,N
1635816135.8,286046998.5,N
1635816155.6,286047000.8,N
1635816175.5,286047000.6,N
1635816195.3,286047000.4,N
1635816215.1,286046998.2,N
1635816235.9,286047001.1,N
1635816255.7,286047000.3,N
1635816275.5,286047001.1,N
1635816295.4,286046998.3,N
1635816315.2,286047001.2,N
1635816335.1,286046998.1,N
1635816336.0,286046998.1,N
1635816355.8,286047000.5,N
1635816375.6,286047000.4,N
1635816395.5,286047000.7,N
1635816415.3,286047001.0,N
1635816435.2,286047001.2,N
1635816455.9,286047000.6,N
1635816475.7,286047002.1,N
1635816495.6,286047002.6,N
1635816515.4,286047000.1,N
1635816535.2,286047001.1,N
1635816555.1,286047000.8,N
1635816556.0,286047000.8,N
1635816575.8,286047000.9,N
1635816595.7,286047000.2,N
1635816615.5,286046998.6,N
1635816635.3,286047000.6,N
1635816655.2,286047001.2,N
1635816675.0,286047000.3,N
1635816675.9,286047000.3,N
1635816695.7,286047000.5,N
1635816715.6,286047000.5,N
1635816735.4,286047000.2,N
1635816755.3,286047000.6,N
1635816775.1,286047000.8,N
1635816776.0,286047000.8,N
1635816795.8,286047001.2,N
1635816815.7,286047000.9,N
1635816835.5,286046998.6,N
1635816855.3,286046998.1,N
1635816875.2,286046999.0,N
1635816895.0,286047000.7,N
1635816895.9,286047000.7,N
1635816915.8,286047000.6,N
1635816935.6,286047002.6,N
1635816955.4,286047001.8,N
1635816975.3,286047004.2,Y
1635816995.1,286047002.6,P
1635817015.8,286047002.8,N
1635817035.7,286047001.2,N
1635817055.5,286046998.7,N
1635817075.4,286046998.5,N
1635817095.2,286046998.4,N
1635817115.0,286047000.4,N
1635817115.9,286047000.4,N
1635817135.8,286047000.6,N
1635817155.6,286046999.3,N
1635817175.4,286046999.4,N
1635817195.3,286046999.2,N
1635817215.1,286046997.9,N
1635817235.9,286046997.2,N
1635817255.7,286046999.1,N
1635817275.5,286046996.6,N
1635817295.4,286046999.5,N
1635817315.2,286046996.5,N
1635817335.0,286046999.6,N
1635817335.9,286046999.6,N
1635817355.8,286046996.6,N
1635817375.6,286046999.1,N
1635817395.5,286046999.1,N
1635817415.3,286046997.1,N
1635817435.1,286046997.4,N
1635817455.9,286046996.4,N
1635817475.7,286046996.4,N
1635817495.6,286046996.4,N
1635817515.4,286046996.3,N
1635817535.2,286046996.1,N
1635817555.1,286046995.9,N
1635817556.0,286046995.9,N
1635817575.8,286046996.1,N
1635817595.6,286046993.6,Y
1635817615.5,286046996.8,P
1635817635.3,286046997.2,P
1635817655.2,286046997.3,P
1635817675.9,286046997.8,Y
1635817695.7,286046998.3,P
1635817715.6,286046998.2,P
1635817735.4,286046999.5,N
1635817755.3,286046999.1,N
1635817775.1,286046996.6,Y
1635817795.8,286047000.9,P
1635817815.7,286047001.0,N
1635817835.5,286047000.9,N
1635817855.4,286047000.4,N
1635817875.2,286046998.3,N
1635817895.0,286046998.9,N
1635817895.9,286046998.9,N
1635817915.8,286046998.4,N
1635817935.6,286046997.0,N
1635817955.4,286046999.2,N
1635817975.3,286046999.2,N
1635817995.1,286046998.8,N
1635818015.9,286047000.2,N
1635818035.7,286047000.2,N
1635818055.5,286047000.4,N
1635818075.4,286047000.8,N
1635818095.2,286047000.5,N
1635818115.0,286047000.1,N
1635818115.9,286047000.1,N
1635818135.8,286047000.0,N
1635818155.6,286047002.3,N
1635818175.5,286047002.5,N
1635818195.3,286047002.4,N
1635818215.1,286047002.5,N
1635818235.9,286047002.8,N
1635818255.7,286046999.9,N
1635818275.5,286047000.7,N
1635818295.4,286046998.5,N
1635818315.2,286046996.6,N
1635818335.1,286046998.9,N
1635818336.0,286046998.9,N
1635818355.8,286046998.7,N
1635818375.6,286046998.2,N
1635818395.5,286046998.9,N
